M I D A S
Marine Information and Data Acquisition System
Tripno 2114 of the Zeeleeuw from 2011-06-01 08:00:57 to 2011-06-01 09:49:34
Back to CruiseResearch ActivitiesStationsMapUnderway DataData graphs

EquipmentUnitsComments
TimeDGPSUTC
LatitudeDGPSDM.mWGS84
LongitudeDGPSDM.mWGS84
SpeedMeteo Stationm/sRelative wind speed
DirectionMeteo StationdegRelative wind direction
TemperatureMeteo Stationdeg CelciusAir temperature
PressureMeteo StationPaAtmospheric pressure
HumidityMeteo Station%Relative humidity
Missing or incorrect values are displayed as -999
Metereological data collected by the RV Zeeleeuw from 2011-06-01 07:30:13 to 2011-06-01 09:49:34
                                                                                    Next 1000 lines
Time Latitude Longitude Speed Direction Temperature Pressure Humidity
2011-06-01 07:30:23 51°13.634 2°56.019 -999 35 14.7 103010 32
2011-06-01 07:30:28 51°13.634 2°56.019 -999 24 14.7 103010 31
2011-06-01 07:30:33 51°13.634 2°56.017 -999 36 14.7 103010 31
2011-06-01 07:30:38 51°13.634 2°56.014 -999 24 14.7 103010 32
2011-06-01 07:30:43 51°13.635 2°56.01 -999 35 14.7 103010 32
2011-06-01 07:30:48 51°13.636 2°56.006 -999 24 14.7 103010 32
2011-06-01 07:30:53 51°13.637 2°56 -999 35 14.7 103010 32
2011-06-01 07:30:58 51°13.638 2°55.994 -999 24 14.7 103010 32
2011-06-01 07:31:04 51°13.64 2°55.985 -999 35 14.7 103010 32
2011-06-01 07:31:08 51°13.642 2°55.979 -999 24 14.7 103010 32
2011-06-01 07:31:13 51°13.644 2°55.971 -999 35 14.7 103010 32
2011-06-01 07:31:18 51°13.646 2°55.962 -999 24 14.7 103010 32
2011-06-01 07:31:23 51°13.648 2°55.953 -999 35 14.7 103010 32
2011-06-01 07:31:28 51°13.65 2°55.944 -999 24 14.7 103020 32
2011-06-01 07:31:33 51°13.653 2°55.935 -999 35 14.7 103020 32
2011-06-01 07:31:38 51°13.655 2°55.927 -999 24 14.7 103010 32
2011-06-01 07:31:43 51°13.656 2°55.918 -999 35 14.7 103010 32
2011-06-01 07:31:48 51°13.658 2°55.91 -999 24 14.7 103010 32
2011-06-01 07:31:53 51°13.66 2°55.902 -999 35 14.7 103010 32
2011-06-01 07:31:58 51°13.662 2°55.893 -999 24 14.7 103020 32
2011-06-01 07:32:04 51°13.664 2°55.884 -999 35 14.7 103020 32
2011-06-01 07:32:09 51°13.665 2°55.876 -999 24 14.7 103020 33
2011-06-01 07:32:14 51°13.667 2°55.869 -999 35 14.7 103020 33
2011-06-01 07:32:18 51°13.668 2°55.863 -999 24 14.6 103020 33
2011-06-01 07:32:24 51°13.671 2°55.853 -999 35 14.6 103020 33
2011-06-01 07:32:29 51°13.673 2°55.845 -999 24 14.6 103020 33
2011-06-01 07:32:34 51°13.675 2°55.837 -999 35 14.6 103020 33
2011-06-01 07:32:39 51°13.677 2°55.829 -999 24 14.6 103020 33
2011-06-01 07:32:44 51°13.679 2°55.821 -999 35 14.6 103020 33
2011-06-01 07:32:49 51°13.681 2°55.813 -999 24 14.5 103020 33
2011-06-01 07:32:54 51°13.683 2°55.805 -999 35 14.5 103020 33
2011-06-01 07:32:59 51°13.684 2°55.797 -999 24 14.5 103010 33
2011-06-01 07:33:04 51°13.686 2°55.789 -999 35 14.5 103010 33
2011-06-01 07:33:09 51°13.688 2°55.782 -999 24 14.5 103020 32
2011-06-01 07:33:14 51°13.69 2°55.775 -999 35 14.5 103020 32
2011-06-01 07:33:19 51°13.692 2°55.768 -999 24 14.5 103020 33
2011-06-01 07:33:24 51°13.694 2°55.762 -999 35 14.5 103020 33
2011-06-01 07:33:29 51°13.695 2°55.756 -999 24 14.5 103020 33
2011-06-01 07:33:33 51°13.696 2°55.751 -999 35 14.5 103020 33
2011-06-01 07:33:38 51°13.698 2°55.745 -999 24 14.4 103020 33
2011-06-01 07:33:43 51°13.699 2°55.74 -999 35 14.4 103020 33
2011-06-01 07:33:48 51°13.7 2°55.735 -999 24 14.4 103020 33
2011-06-01 07:33:53 51°13.701 2°55.731 -999 35 14.4 103020 33
2011-06-01 07:33:58 51°13.702 2°55.728 -999 24 14.4 103020 33
2011-06-01 07:34:02 51°13.702 2°55.726 -999 35 14.4 103020 33
2011-06-01 07:34:07 51°13.702 2°55.725 -999 24 14.4 103020 33
2011-06-01 07:34:12 51°13.703 2°55.724 -999 267 14.4 103020 33
2011-06-01 07:34:17 51°13.703 2°55.726 -999 266 14.4 103020 33
2011-06-01 07:34:22 51°13.703 2°55.729 -999 258 14.4 103020 33
2011-06-01 07:34:26 51°13.703 2°55.733 -999 255 14.4 103020 33
2011-06-01 07:34:31 51°13.704 2°55.737 -999 253 14.4 103020 33
2011-06-01 07:34:36 51°13.705 2°55.74 -999 252 14.4 103020 33
2011-06-01 07:34:41 51°13.706 2°55.743 -999 251 14.4 103020 33
2011-06-01 07:34:46 51°13.706 2°55.744 -999 251 14.5 103020 33
2011-06-01 07:34:50 51°13.706 2°55.745 -999 254 14.5 103020 33
2011-06-01 07:34:56 51°13.705 2°55.745 -999 254 14.5 103010 33
2011-06-01 07:35:01 51°13.705 2°55.743 -999 257 14.5 103010 33
2011-06-01 07:35:05 51°13.704 2°55.741 -999 257 14.5 103020 33
2011-06-01 07:35:10 51°13.703 2°55.74 -999 256 14.5 103020 33
2011-06-01 07:35:15 51°13.702 2°55.738 -999 256 14.5 103020 34
2011-06-01 07:35:20 51°13.701 2°55.736 -999 251 14.5 103020 34
2011-06-01 07:35:25 51°13.701 2°55.736 -999 251 14.6 103020 34
2011-06-01 07:35:30 51°13.701 2°55.737 -999 241 14.6 103020 34
2011-06-01 07:35:36 51°13.703 2°55.74 -999 24 14.6 103010 34
2011-06-01 07:35:42 51°13.706 2°55.743 -999 35 14.6 103010 34
2011-06-01 07:35:46 51°13.709 2°55.745 -999 24 14.7 103020 32
2011-06-01 07:35:51 51°13.712 2°55.747 -999 317 14.7 103020 32
2011-06-01 07:35:56 51°13.715 2°55.75 -999 317 14.7 103020 33
2011-06-01 07:36:01 51°13.718 2°55.751 -999 319 14.7 103020 33
2011-06-01 07:36:06 51°13.721 2°55.752 -999 319 14.7 103010 33
2011-06-01 07:36:10 51°13.722 2°55.753 -999 319 14.7 103010 33
2011-06-01 07:36:15 51°13.723 2°55.754 -999 319 14.7 103010 33
2011-06-01 07:36:20 51°13.723 2°55.754 -999 321 14.7 103010 33
2011-06-01 07:36:26 51°13.722 2°55.755 -999 321 14.7 103010 32
2011-06-01 07:36:30 51°13.722 2°55.755 -999 318 14.7 103010 32
2011-06-01 07:36:35 51°13.72 2°55.756 -999 316 14.7 103010 32
2011-06-01 07:36:40 51°13.718 2°55.757 -999 319 14.7 103010 32
2011-06-01 07:36:46 51°13.715 2°55.758 -999 317 14.7 103020 32
2011-06-01 07:36:51 51°13.713 2°55.758 -999 316 14.7 103020 32
2011-06-01 07:36:57 51°13.71 2°55.759 -999 318 14.8 103010 32
2011-06-01 07:37:02 51°13.709 2°55.76 -999 319 14.8 103010 32
2011-06-01 07:37:08 51°13.708 2°55.76 -999 320 14.8 103020 32
2011-06-01 07:37:13 51°13.708 2°55.761 -999 326 14.8 103020 32
2011-06-01 07:37:18 51°13.708 2°55.761 -999 326 14.8 103020 32
2011-06-01 07:37:24 51°13.709 2°55.76 -999 327 14.8 103020 32
2011-06-01 07:37:29 51°13.711 2°55.76 -999 330 14.8 103010 32
2011-06-01 07:37:33 51°13.713 2°55.759 -999 332 14.8 103010 32
2011-06-01 07:37:38 51°13.716 2°55.757 -999 329 14.9 103010 33
2011-06-01 07:37:44 51°13.721 2°55.754 -999 331 14.9 103010 33
2011-06-01 07:37:48 51°13.725 2°55.75 -999 334 14.9 103010 33
2011-06-01 07:37:53 51°13.731 2°55.745 -999 335 14.9 103010 33
2011-06-01 07:37:58 51°13.736 2°55.739 -999 335 14.9 103010 33
2011-06-01 07:38:03 51°13.742 2°55.734 -999 331 14.9 103010 33
2011-06-01 07:38:08 51°13.748 2°55.727 -999 334 14.9 103010 33
2011-06-01 07:38:13 51°13.753 2°55.721 -999 336 14.9 103010 33
2011-06-01 07:38:18 51°13.758 2°55.714 -999 337 14.9 103010 33
2011-06-01 07:38:22 51°13.763 2°55.708 -999 337 14.9 103010 33
2011-06-01 07:38:27 51°13.768 2°55.701 -999 336 14.9 103010 31
2011-06-01 07:38:32 51°13.774 2°55.694 -999 337 14.9 103010 31
2011-06-01 07:38:37 51°13.779 2°55.686 -999 339 14.9 103010 33
2011-06-01 07:38:42 51°13.785 2°55.679 -999 338 14.9 103010 33
2011-06-01 07:38:47 51°13.79 2°55.672 -999 337 14.9 103010 33
2011-06-01 07:38:52 51°13.796 2°55.665 -999 336 14.9 103010 33
2011-06-01 07:38:56 51°13.801 2°55.66 -999 336 14.9 103010 33
2011-06-01 07:39:01 51°13.807 2°55.653 -999 334 14.9 103010 33
2011-06-01 07:39:06 51°13.813 2°55.647 -999 334 14.9 103010 33
2011-06-01 07:39:11 51°13.82 2°55.641 -999 336 14.9 103010 33
2011-06-01 07:39:16 51°13.826 2°55.636 -999 333 14.9 103010 33
2011-06-01 07:39:21 51°13.833 2°55.63 -999 336 14.9 103010 33
2011-06-01 07:39:26 51°13.839 2°55.625 -999 334 14.9 103010 33
2011-06-01 07:39:30 51°13.845 2°55.621 -999 332 14.9 103010 33
2011-06-01 07:39:35 51°13.851 2°55.616 -999 328 14.9 103010 33
2011-06-01 07:39:40 51°13.858 2°55.61 -999 333 14.9 103010 33
2011-06-01 07:39:45 51°13.865 2°55.605 -999 329 14.9 103010 33
2011-06-01 07:39:50 51°13.872 2°55.6 -999 333 14.9 103010 33
2011-06-01 07:39:54 51°13.878 2°55.597 -999 333 14.9 103010 33
2011-06-01 07:40:00 51°13.886 2°55.591 -999 330 14.9 103010 33
2011-06-01 07:40:04 51°13.892 2°55.587 -999 331 14.9 103010 33
2011-06-01 07:40:10 51°13.9 2°55.581 -999 328 14.9 103010 33
2011-06-01 07:40:14 51°13.906 2°55.577 -999 329 14.9 103010 33
2011-06-01 07:40:19 51°13.913 2°55.573 -999 330 14.9 103010 33
2011-06-01 07:40:24 51°13.92 2°55.569 -999 330 14.9 103010 33
2011-06-01 07:40:30 51°13.929 2°55.563 -999 322 14.9 103010 33
2011-06-01 07:40:34 51°13.935 2°55.559 -999 326 14.9 103010 33
2011-06-01 07:40:40 51°13.943 2°55.554 -999 331 14.9 103010 33
2011-06-01 07:40:45 51°13.951 2°55.55 -999 328 14.9 103010 33
2011-06-01 07:40:50 51°13.958 2°55.545 -999 328 14.9 103010 33
2011-06-01 07:40:54 51°13.964 2°55.541 -999 329 14.9 103010 33
2011-06-01 07:40:59 51°13.971 2°55.536 -999 330 14.9 103010 33
2011-06-01 07:41:04 51°13.977 2°55.531 -999 329 14.9 103010 32
2011-06-01 07:41:10 51°13.986 2°55.525 -999 329 14.9 103010 32
2011-06-01 07:41:14 51°13.992 2°55.521 -999 331 14.9 103010 33
2011-06-01 07:41:19 51°13.998 2°55.516 -999 331 14.9 103010 33
2011-06-01 07:41:24 51°14.006 2°55.511 -999 329 14.9 103010 33
2011-06-01 07:41:30 51°14.014 2°55.506 -999 331 14.9 103010 33
2011-06-01 07:41:34 51°14.02 2°55.502 -999 329 14.9 103010 33
2011-06-01 07:41:39 51°14.027 2°55.497 -999 329 14.9 103010 33
2011-06-01 07:41:44 51°14.034 2°55.491 -999 325 14.9 103010 33
2011-06-01 07:41:50 51°14.043 2°55.485 -999 324 14.9 103010 33
2011-06-01 07:41:54 51°14.049 2°55.481 -999 329 14.9 103010 33
2011-06-01 07:41:59 51°14.056 2°55.475 -999 328 14.9 103010 33
2011-06-01 07:42:05 51°14.065 2°55.468 -999 329 15 103010 33
2011-06-01 07:42:10 51°14.073 2°55.462 -999 330 15 103010 33
2011-06-01 07:42:14 51°14.079 2°55.458 -999 329 15 103010 33
2011-06-01 07:42:20 51°14.089 2°55.451 -999 329 15 103010 33
2011-06-01 07:42:25 51°14.097 2°55.445 -999 330 15 103010 33
2011-06-01 07:42:30 51°14.105 2°55.439 -999 330 15 103010 33
2011-06-01 07:42:34 51°14.111 2°55.434 -999 329 15 103010 33
2011-06-01 07:42:40 51°14.121 2°55.426 -999 328 15 103010 33
2011-06-01 07:42:44 51°14.127 2°55.421 -999 328 15 103010 33
2011-06-01 07:42:50 51°14.137 2°55.413 -999 327 15 103010 33
2011-06-01 07:42:54 51°14.143 2°55.407 -999 328 15 103010 33
2011-06-01 07:43:00 51°14.154 2°55.399 -999 328 15 103010 33
2011-06-01 07:43:05 51°14.162 2°55.392 -999 328 15 103010 33
2011-06-01 07:43:10 51°14.172 2°55.384 -999 329 15 103010 33
2011-06-01 07:43:16 51°14.184 2°55.374 -999 330 15 103010 33
2011-06-01 07:43:21 51°14.194 2°55.365 -999 330 15 103010 33
2011-06-01 07:43:26 51°14.204 2°55.356 -999 331 15 103010 33
2011-06-01 07:43:31 51°14.214 2°55.346 -999 331 15 103010 33
2011-06-01 07:43:36 51°14.224 2°55.336 -999 329 15 103010 33
2011-06-01 07:43:41 51°14.235 2°55.326 -999 330 15 103010 33
2011-06-01 07:43:46 51°14.246 2°55.315 -999 329 15 103010 32
2011-06-01 07:43:50 51°14.255 2°55.307 -999 329 15 103010 32
2011-06-01 07:43:55 51°14.265 2°55.295 -999 330 15 103010 33
2011-06-01 07:44:01 51°14.278 2°55.281 -999 331 15 103010 33
2011-06-01 07:44:05 51°14.287 2°55.272 -999 331 15 103010 33
2011-06-01 07:44:10 51°14.297 2°55.26 -999 331 15 103010 33
2011-06-01 07:44:16 51°14.31 2°55.246 -999 330 15 103000 33
2011-06-01 07:44:21 51°14.321 2°55.235 -999 330 15 103000 33
2011-06-01 07:44:26 51°14.333 2°55.223 -999 330 14.9 103010 33
2011-06-01 07:44:30 51°14.342 2°55.214 -999 330 14.9 103010 33
2011-06-01 07:44:35 51°14.354 2°55.203 -999 330 15 103010 33
2011-06-01 07:44:40 51°14.366 2°55.19 -999 331 15 103010 33
2011-06-01 07:44:45 51°14.378 2°55.178 -999 332 15 103000 33
2011-06-01 07:44:50 51°14.39 2°55.166 -999 334 15 103000 33
2011-06-01 07:44:55 51°14.403 2°55.153 -999 333 15 103000 33
2011-06-01 07:45:00 51°14.416 2°55.14 -999 331 15 103000 33
2011-06-01 07:45:06 51°14.43 2°55.123 -999 333 15 103000 33
2011-06-01 07:45:10 51°14.441 2°55.113 -999 333 15 103000 33
2011-06-01 07:45:15 51°14.454 2°55.098 -999 331 15 103010 33
2011-06-01 07:45:20 51°14.466 2°55.084 -999 330 15 103010 33
2011-06-01 07:45:26 51°14.481 2°55.067 -999 330 15 103010 33
2011-06-01 07:45:30 51°14.491 2°55.055 -999 330 15 103010 33
2011-06-01 07:45:35 51°14.504 2°55.041 -999 330 14.9 103000 33
2011-06-01 07:45:40 51°14.517 2°55.027 -999 329 14.9 103000 33
2011-06-01 07:45:45 51°14.529 2°55.01 -999 329 14.9 103000 33
2011-06-01 07:45:50 51°14.54 2°54.992 -999 328 14.9 103000 33
2011-06-01 07:45:54 51°14.549 2°54.978 -999 328 14.9 103010 34
2011-06-01 07:46:00 51°14.563 2°54.957 -999 330 14.9 103010 34
2011-06-01 07:46:05 51°14.574 2°54.939 -999 329 14.9 103000 34
2011-06-01 07:46:10 51°14.585 2°54.921 -999 329 14.9 103000 34
2011-06-01 07:46:14 51°14.594 2°54.907 -999 329 14.9 103000 34
2011-06-01 07:46:19 51°14.606 2°54.889 -999 329 14.9 103000 34
2011-06-01 07:46:25 51°14.62 2°54.867 -999 328 14.9 103000 32
2011-06-01 07:46:30 51°14.632 2°54.849 -999 330 14.9 103000 32
2011-06-01 07:46:34 51°14.642 2°54.835 -999 331 14.9 103000 34
2011-06-01 07:46:40 51°14.657 2°54.813 -999 330 14.9 103000 34
2011-06-01 07:46:45 51°14.67 2°54.796 -999 330 14.9 103000 34
2011-06-01 07:46:50 51°14.683 2°54.778 -999 330 14.9 103000 34
2011-06-01 07:46:54 51°14.694 2°54.764 -999 331 14.9 103000 34
2011-06-01 07:47:00 51°14.711 2°54.744 -999 329 14.9 103000 34
2011-06-01 07:47:05 51°14.725 2°54.728 -999 327 14.9 103000 34
2011-06-01 07:47:10 51°14.74 2°54.713 -999 329 14.9 103000 34
2011-06-01 07:47:14 51°14.752 2°54.701 -999 328 14.9 103000 34
2011-06-01 07:47:19 51°14.768 2°54.687 -999 327 14.9 103000 34
2011-06-01 07:47:24 51°14.783 2°54.672 -999 328 14.9 103000 34
2011-06-01 07:47:30 51°14.801 2°54.655 -999 328 14.9 103000 34
2011-06-01 07:47:34 51°14.813 2°54.644 -999 329 14.9 103000 34
2011-06-01 07:47:40 51°14.831 2°54.627 -999 329 14.9 103000 34
2011-06-01 07:47:45 51°14.847 2°54.613 -999 328 14.9 103000 34
2011-06-01 07:47:50 51°14.862 2°54.598 -999 329 14.9 103000 34
2011-06-01 07:47:54 51°14.874 2°54.587 -999 329 14.9 103010 34
2011-06-01 07:47:59 51°14.889 2°54.572 -999 330 14.9 103010 34
2011-06-01 07:48:04 51°14.904 2°54.557 -999 330 14.9 103000 34
2011-06-01 07:48:10 51°14.921 2°54.538 -999 331 14.9 103000 34
2011-06-01 07:48:14 51°14.933 2°54.525 -999 331 14.9 103000 34
2011-06-01 07:48:20 51°14.95 2°54.505 -999 331 14.9 103000 34
2011-06-01 07:48:25 51°14.964 2°54.488 -999 329 14.9 103000 34
2011-06-01 07:48:30 51°14.977 2°54.47 -999 331 14.9 103000 34
2011-06-01 07:48:34 51°14.987 2°54.454 -999 329 14.9 103000 34
2011-06-01 07:48:39 51°14.998 2°54.432 -999 330 14.9 103000 34
2011-06-01 07:48:45 51°15.011 2°54.405 -999 332 14.9 103000 34
2011-06-01 07:48:50 51°15.021 2°54.382 -999 332 14.9 103000 34
2011-06-01 07:48:54 51°15.029 2°54.363 -999 332 14.9 103000 34
2011-06-01 07:49:00 51°15.04 2°54.335 -999 333 14.9 103000 34
2011-06-01 07:49:05 51°15.048 2°54.31 -999 333 14.9 103000 34
2011-06-01 07:49:10 51°15.056 2°54.285 -999 334 14.9 103000 34
2011-06-01 07:49:14 51°15.063 2°54.265 -999 335 14.9 103010 35
2011-06-01 07:49:20 51°15.072 2°54.236 -999 334 14.9 103010 35
2011-06-01 07:49:25 51°15.079 2°54.21 -999 333 14.9 103000 34
2011-06-01 07:49:30 51°15.086 2°54.185 -999 333 14.9 103000 34
2011-06-01 07:49:34 51°15.092 2°54.164 -999 334 14.8 103000 32
2011-06-01 07:49:39 51°15.098 2°54.138 -999 335 14.8 103000 32
2011-06-01 07:49:44 51°15.104 2°54.111 -999 336 14.8 103010 34
2011-06-01 07:49:50 51°15.108 2°54.077 -999 335 14.8 103010 34
2011-06-01 07:49:54 51°15.111 2°54.054 -999 336 14.9 103010 34
2011-06-01 07:49:59 51°15.112 2°54.025 -999 338 14.9 103010 34
2011-06-01 07:50:05 51°15.111 2°53.99 -999 339 14.9 103010 34
2011-06-01 07:50:10 51°15.108 2°53.961 -999 338 14.9 103010 34
2011-06-01 07:50:14 51°15.106 2°53.938 -999 339 14.9 103010 34
2011-06-01 07:50:19 51°15.102 2°53.909 -999 339 14.9 103010 34
2011-06-01 07:50:24 51°15.099 2°53.88 -999 340 14.9 103010 34
2011-06-01 07:50:30 51°15.093 2°53.845 -999 340 14.9 103010 34
2011-06-01 07:50:34 51°15.089 2°53.822 -999 339 14.9 103010 34
2011-06-01 07:50:40 51°15.083 2°53.787 -999 341 14.9 103010 34
2011-06-01 07:50:45 51°15.077 2°53.758 -999 341 14.9 103010 34
2011-06-01 07:50:49 51°15.072 2°53.736 -999 340 14.9 103010 34
2011-06-01 07:50:54 51°15.066 2°53.707 -999 339 14.9 103010 34
2011-06-01 07:51:00 51°15.059 2°53.673 -999 341 14.9 103010 34
2011-06-01 07:51:04 51°15.054 2°53.65 -999 342 14.8 103010 34
2011-06-01 07:51:10 51°15.045 2°53.616 -999 341 14.8 103010 34
2011-06-01 07:51:14 51°15.039 2°53.594 -999 342 14.8 103010 34
2011-06-01 07:51:20 51°15.029 2°53.562 -999 342 14.8 103010 34
2011-06-01 07:51:24 51°15.022 2°53.54 -999 342 14.8 103010 34
2011-06-01 07:51:30 51°15.011 2°53.509 -999 340 14.8 103010 34
2011-06-01 07:51:34 51°15.003 2°53.488 -999 343 14.8 103010 34
2011-06-01 07:51:40 51°14.991 2°53.456 -999 343 14.8 103010 34
2011-06-01 07:51:45 51°14.981 2°53.43 -999 343 14.8 103010 34
2011-06-01 07:51:50 51°14.971 2°53.404 -999 342 14.8 103010 34
2011-06-01 07:51:54 51°14.963 2°53.384 -999 341 14.8 103010 34
2011-06-01 07:51:59 51°14.953 2°53.358 -999 344 14.8 103010 34
2011-06-01 07:52:05 51°14.942 2°53.326 -999 341 14.8 103010 35
2011-06-01 07:52:10 51°14.933 2°53.299 -999 343 14.8 103010 35
2011-06-01 07:52:14 51°14.927 2°53.277 -999 343 14.8 103010 33
2011-06-01 07:52:19 51°14.919 2°53.25 -999 343 14.8 103010 33
2011-06-01 07:52:25 51°14.911 2°53.216 -999 342 14.7 103010 35
2011-06-01 07:52:30 51°14.905 2°53.187 -999 340 14.7 103010 35
2011-06-01 07:52:34 51°14.9 2°53.164 -999 338 14.7 103010 35
2011-06-01 07:52:39 51°14.895 2°53.135 -999 340 14.7 103010 35
2011-06-01 07:52:44 51°14.889 2°53.107 -999 340 14.7 103010 34
2011-06-01 07:52:49 51°14.884 2°53.078 -999 340 14.7 103010 34
2011-06-01 07:52:54 51°14.879 2°53.049 -999 340 14.7 103010 35
2011-06-01 07:52:59 51°14.874 2°53.02 -999 339 14.7 103010 35
2011-06-01 07:53:05 51°14.868 2°52.985 -999 339 14.7 103010 35
2011-06-01 07:53:10 51°14.864 2°52.956 -999 337 14.7 103010 35
2011-06-01 07:53:14 51°14.86 2°52.932 -999 338 14.6 103010 35
2011-06-01 07:53:20 51°14.854 2°52.897 -999 340 14.6 103010 35
2011-06-01 07:53:25 51°14.85 2°52.868 -999 340 14.7 103010 35
2011-06-01 07:53:30 51°14.845 2°52.839 -999 341 14.7 103010 35
2011-06-01 07:53:34 51°14.841 2°52.816 -999 339 14.7 103010 35
2011-06-01 07:53:39 51°14.836 2°52.787 -999 342 14.7 103010 35
2011-06-01 07:53:45 51°14.83 2°52.752 -999 341 14.6 103010 35
2011-06-01 07:53:50 51°14.824 2°52.723 -999 342 14.6 103010 35
2011-06-01 07:53:54 51°14.82 2°52.7 -999 341 14.6 103010 35
2011-06-01 07:53:58 51°14.816 2°52.677 -999 343 14.6 103010 35
2011-06-01 07:54:05 51°14.808 2°52.637 -999 342 14.6 103010 35
2011-06-01 07:54:10 51°14.802 2°52.608 -999 343 14.6 103010 35
2011-06-01 07:54:14 51°14.797 2°52.586 -999 343 14.6 103010 35
2011-06-01 07:54:19 51°14.79 2°52.558 -999 343 14.6 103010 35
2011-06-01 07:54:25 51°14.781 2°52.524 -999 344 14.6 103010 34
2011-06-01 07:54:30 51°14.774 2°52.497 -999 342 14.6 103010 34
2011-06-01 07:54:34 51°14.768 2°52.475 -999 341 14.6 103010 34
2011-06-01 07:54:39 51°14.76 2°52.447 -999 341 14.6 103010 34
2011-06-01 07:54:44 51°14.752 2°52.419 -999 340 14.6 103010 34
2011-06-01 07:54:50 51°14.744 2°52.386 -999 342 14.6 103010 34
2011-06-01 07:54:54 51°14.738 2°52.364 -999 342 14.6 103010 33
2011-06-01 07:55:00 51°14.729 2°52.331 -999 342 14.6 103010 33
2011-06-01 07:55:05 51°14.722 2°52.302 -999 342 14.6 103010 35
2011-06-01 07:55:10 51°14.715 2°52.274 -999 342 14.6 103010 35
2011-06-01 07:55:14 51°14.709 2°52.252 -999 342 14.5 103010 35
2011-06-01 07:55:19 51°14.702 2°52.225 -999 344 14.5 103010 35
2011-06-01 07:55:24 51°14.694 2°52.197 -999 343 14.5 103010 35
2011-06-01 07:55:29 51°14.687 2°52.172 -999 345 14.5 103010 35
2011-06-01 07:55:34 51°14.68 2°52.147 -999 343 14.5 103010 35
2011-06-01 07:55:39 51°14.672 2°52.124 -999 345 14.5 103010 35
2011-06-01 07:55:44 51°14.665 2°52.103 -999 345 14.6 103010 35
2011-06-01 07:55:49 51°14.658 2°52.083 -999 349 14.6 103010 35
2011-06-01 07:55:55 51°14.649 2°52.062 -999 348 14.6 103020 35
2011-06-01 07:55:58 51°14.644 2°52.052 -999 348 14.6 103020 35
2011-06-01 07:56:04 51°14.636 2°52.033 -999 349 14.5 103020 35
2011-06-01 07:56:09 51°14.628 2°52.018 -999 351 14.5 103020 35
2011-06-01 07:56:14 51°14.621 2°52.005 -999 351 14.5 103020 35
2011-06-01 07:56:19 51°14.614 2°51.993 -999 352 14.5 103020 35
2011-06-01 07:56:25 51°14.606 2°51.978 -999 353 14.5 103020 35
2011-06-01 07:56:30 51°14.599 2°51.967 -999 354 14.5 103020 35
2011-06-01 07:56:35 51°14.593 2°51.956 -999 353 14.4 103020 35
2011-06-01 07:56:40 51°14.587 2°51.946 -999 354 14.4 103020 35
2011-06-01 07:56:45 51°14.58 2°51.936 -999 354 14.4 103020 36
2011-06-01 07:56:50 51°14.574 2°51.926 -999 356 14.4 103020 36
2011-06-01 07:56:55 51°14.569 2°51.916 -999 354 14.4 103020 36
2011-06-01 07:57:00 51°14.563 2°51.906 -999 356 14.4 103020 36
2011-06-01 07:57:05 51°14.558 2°51.896 -999 356 14.3 103020 35
2011-06-01 07:57:10 51°14.552 2°51.886 -999 354 14.3 103020 35
2011-06-01 07:57:15 51°14.547 2°51.876 -999 355 14.3 103020 36
2011-06-01 07:57:20 51°14.542 2°51.866 -999 355 14.3 103020 36
2011-06-01 07:57:25 51°14.537 2°51.856 -999 355 14.2 103020 35
2011-06-01 07:57:30 51°14.532 2°51.845 -999 354 14.2 103020 35
2011-06-01 07:57:35 51°14.528 2°51.835 -999 352 14.2 103020 34
2011-06-01 07:57:40 51°14.523 2°51.824 -999 350 14.2 103020 34
2011-06-01 07:57:45 51°14.518 2°51.814 -999 352 14.1 103020 35
2011-06-01 07:57:50 51°14.514 2°51.803 -999 351 14.1 103020 35
2011-06-01 07:57:55 51°14.51 2°51.792 -999 352 14.1 103020 35
2011-06-01 07:58:00 51°14.506 2°51.782 -999 351 14.1 103020 35
2011-06-01 07:58:05 51°14.502 2°51.771 -999 352 14.1 103020 35
2011-06-01 07:58:10 51°14.498 2°51.76 -999 352 14.1 103020 35
2011-06-01 07:58:15 51°14.494 2°51.749 -999 352 14.1 103020 36
2011-06-01 07:58:20 51°14.49 2°51.738 -999 351 14.1 103020 36
2011-06-01 07:58:25 51°14.486 2°51.728 -999 352 14.1 103020 36
2011-06-01 07:58:30 51°14.482 2°51.717 -999 353 14.1 103020 36
2011-06-01 07:58:35 51°14.478 2°51.706 -999 353 14 103020 35
2011-06-01 07:58:40 51°14.474 2°51.695 -999 355 14 103020 35
2011-06-01 07:58:45 51°14.47 2°51.684 -999 354 14 103020 35
2011-06-01 07:58:50 51°14.466 2°51.673 -999 356 14 103020 35
2011-06-01 07:58:55 51°14.463 2°51.662 -999 357 14 103020 35
2011-06-01 07:59:00 51°14.459 2°51.651 -999 353 14 103020 35
2011-06-01 07:59:05 51°14.455 2°51.641 -999 353 14 103020 35
2011-06-01 07:59:10 51°14.451 2°51.63 -999 351 14 103020 35
2011-06-01 07:59:15 51°14.447 2°51.619 -999 351 13.9 103020 35
2011-06-01 07:59:20 51°14.443 2°51.608 -999 353 13.9 103020 35
2011-06-01 07:59:25 51°14.439 2°51.597 -999 351 14 103020 35
2011-06-01 07:59:30 51°14.436 2°51.586 -999 351 14 103020 35
2011-06-01 07:59:35 51°14.432 2°51.576 -999 351 14 103020 36
2011-06-01 07:59:40 51°14.428 2°51.564 -999 348 14 103020 36
2011-06-01 07:59:45 51°14.425 2°51.554 -999 350 14 103020 36
2011-06-01 07:59:50 51°14.422 2°51.543 -999 346 14 103020 36
2011-06-01 07:59:55 51°14.418 2°51.532 -999 352 13.9 103020 36
2011-06-01 08:00:00 51°14.415 2°51.521 -999 348 13.9 103020 36
2011-06-01 08:00:05 51°14.412 2°51.51 -999 347 13.9 103020 36
2011-06-01 08:00:10 51°14.409 2°51.5 -999 348 13.9 103020 36
2011-06-01 08:00:15 51°14.407 2°51.489 -999 348 13.9 103020 34
2011-06-01 08:00:19 51°14.404 2°51.48 -999 348 13.9 103020 34
2011-06-01 08:00:25 51°14.402 2°51.467 -999 348 13.9 103020 36
2011-06-01 08:00:30 51°14.399 2°51.457 -999 347 13.9 103020 36
2011-06-01 08:00:35 51°14.397 2°51.446 -999 344 13.9 103020 35
2011-06-01 08:00:40 51°14.395 2°51.435 -999 345 13.9 103020 35
2011-06-01 08:00:45 51°14.393 2°51.424 -999 345 13.8 103020 35
2011-06-01 08:00:50 51°14.391 2°51.413 -999 347 13.8 103020 35
2011-06-01 08:00:55 51°14.389 2°51.403 -999 350 13.9 103020 35
2011-06-01 08:00:59 51°14.387 2°51.394 -999 352 13.9 103020 35
2011-06-01 08:01:05 51°14.385 2°51.381 -999 351 13.9 103020 36
2011-06-01 08:01:10 51°14.383 2°51.37 -999 351 13.9 103020 36
2011-06-01 08:01:15 51°14.381 2°51.36 -999 352 13.9 103020 36
2011-06-01 08:01:19 51°14.379 2°51.351 -999 352 13.9 103020 36
2011-06-01 08:01:25 51°14.376 2°51.339 -999 352 13.9 103020 35
2011-06-01 08:01:30 51°14.374 2°51.328 -999 351 13.9 103020 35
2011-06-01 08:01:35 51°14.372 2°51.319 -999 352 13.9 103020 35
2011-06-01 08:01:40 51°14.37 2°51.308 -999 350 13.9 103020 35
2011-06-01 08:01:45 51°14.368 2°51.298 -999 350 13.9 103020 35
2011-06-01 08:01:50 51°14.365 2°51.288 -999 351 13.9 103020 35
2011-06-01 08:01:55 51°14.363 2°51.279 -999 349 13.8 103020 35
2011-06-01 08:02:00 51°14.361 2°51.269 -999 349 13.8 103020 35
2011-06-01 08:02:05 51°14.359 2°51.259 -999 350 13.9 103020 35
2011-06-01 08:02:10 51°14.357 2°51.25 -999 350 13.9 103020 35
2011-06-01 08:02:15 51°14.354 2°51.24 -999 350 13.9 103020 35
2011-06-01 08:02:20 51°14.352 2°51.231 -999 348 13.9 103020 35
2011-06-01 08:02:25 51°14.349 2°51.222 -999 350 13.8 103030 35
2011-06-01 08:02:30 51°14.347 2°51.213 -999 352 13.8 103030 35
2011-06-01 08:02:35 51°14.345 2°51.204 -999 351 13.9 103020 35
2011-06-01 08:02:40 51°14.343 2°51.195 -999 351 13.9 103020 35
2011-06-01 08:02:45 51°14.34 2°51.186 -999 349 13.9 103020 35
2011-06-01 08:02:50 51°14.338 2°51.177 -999 349 13.9 103020 35
2011-06-01 08:02:55 51°14.335 2°51.168 -999 349 13.9 103020 34
2011-06-01 08:03:00 51°14.333 2°51.16 -999 351 13.9 103020 34
2011-06-01 08:03:05 51°14.33 2°51.151 -999 352 13.9 103020 36
2011-06-01 08:03:10 51°14.328 2°51.142 -999 354 13.9 103020 36
2011-06-01 08:03:15 51°14.325 2°51.134 -999 355 13.9 103030 36
2011-06-01 08:03:20 51°14.322 2°51.125 -999 354 13.9 103030 36
2011-06-01 08:03:25 51°14.319 2°51.117 -999 355 13.9 103030 36
2011-06-01 08:03:30 51°14.316 2°51.109 -999 355 13.9 103030 36
2011-06-01 08:03:35 51°14.313 2°51.1 -999 357 13.9 103020 36
2011-06-01 08:03:40 51°14.311 2°51.092 -999 358 13.9 103020 36
2011-06-01 08:03:45 51°14.307 2°51.084 -999 358 13.9 103020 36
2011-06-01 08:03:50 51°14.304 2°51.076 -999 357 13.9 103020 36
2011-06-01 08:03:55 51°14.301 2°51.068 -999 357 13.8 103020 36
2011-06-01 08:04:00 51°14.298 2°51.06 -999 354 13.8 103020 36
2011-06-01 08:04:05 51°14.295 2°51.052 -999 356 13.8 103030 36
2011-06-01 08:04:10 51°14.292 2°51.044 -999 356 13.8 103030 36
2011-06-01 08:04:15 51°14.288 2°51.036 -999 356 13.8 103030 36
2011-06-01 08:04:20 51°14.285 2°51.028 -999 356 13.8 103030 36
2011-06-01 08:04:25 51°14.282 2°51.021 -999 354 13.9 103020 36
2011-06-01 08:04:30 51°14.279 2°51.013 -999 354 13.9 103020 36
2011-06-01 08:04:35 51°14.275 2°51.005 -999 355 13.9 103020 36
2011-06-01 08:04:40 51°14.272 2°50.997 -999 356 13.9 103020 36
2011-06-01 08:04:45 51°14.269 2°50.99 -999 356 13.9 103030 36
2011-06-01 08:04:50 51°14.265 2°50.982 -999 358 13.9 103030 36
2011-06-01 08:04:55 51°14.262 2°50.974 -999 357 13.8 103030 36
2011-06-01 08:04:59 51°14.259 2°50.968 -999 357 13.8 103030 36
2011-06-01 08:05:05 51°14.255 2°50.959 -999 359 13.8 103030 36
2011-06-01 08:05:10 51°14.252 2°50.951 -999 359 13.8 103030 36
2011-06-01 08:05:15 51°14.249 2°50.944 -999 359 13.8 103030 36
2011-06-01 08:05:19 51°14.246 2°50.937 -999 358 13.8 103030 36
2011-06-01 08:05:25 51°14.242 2°50.928 -999 359 13.8 103020 36
2011-06-01 08:05:30 51°14.239 2°50.92 -999 357 13.8 103020 36
2011-06-01 08:05:35 51°14.236 2°50.912 -999 359 13.8 103020 34
2011-06-01 08:05:40 51°14.232 2°50.905 -999 354 13.8 103020 34
2011-06-01 08:05:45 51°14.229 2°50.897 -999 351 13.8 103020 37
2011-06-01 08:05:50 51°14.226 2°50.889 -999 351 13.8 103020 37
2011-06-01 08:05:55 51°14.223 2°50.881 -999 353 13.8 103030 36
2011-06-01 08:05:59 51°14.221 2°50.875 -999 356 13.8 103030 36
2011-06-01 08:06:05 51°14.217 2°50.865 -999 353 13.8 103020 36
2011-06-01 08:06:10 51°14.215 2°50.857 -999 353 13.8 103020 36
2011-06-01 08:06:15 51°14.212 2°50.849 -999 352 13.8 103030 37
2011-06-01 08:06:19 51°14.21 2°50.843 -999 351 13.8 103030 37
2011-06-01 08:06:25 51°14.207 2°50.833 -999 351 13.8 103020 36
2011-06-01 08:06:30 51°14.204 2°50.825 -999 351 13.8 103020 36
2011-06-01 08:06:35 51°14.202 2°50.817 -999 352 13.8 103030 36
2011-06-01 08:06:40 51°14.199 2°50.808 -999 352 13.8 103030 36
2011-06-01 08:06:45 51°14.197 2°50.8 -999 352 13.8 103030 36
2011-06-01 08:06:50 51°14.195 2°50.792 -999 352 13.8 103030 36
2011-06-01 08:06:55 51°14.192 2°50.784 -999 352 13.8 103030 36
2011-06-01 08:07:00 51°14.19 2°50.776 -999 353 13.8 103030 36
2011-06-01 08:07:05 51°14.188 2°50.768 -999 351 13.8 103030 36
2011-06-01 08:07:10 51°14.186 2°50.759 -999 349 13.8 103030 36
2011-06-01 08:07:15 51°14.184 2°50.751 -999 346 13.8 103020 36
2011-06-01 08:07:20 51°14.182 2°50.742 -999 348 13.8 103020 36
2011-06-01 08:07:25 51°14.18 2°50.734 -999 348 13.8 103020 36
2011-06-01 08:07:30 51°14.178 2°50.726 -999 347 13.8 103020 36
2011-06-01 08:07:35 51°14.176 2°50.718 -999 346 13.8 103020 36
2011-06-01 08:07:40 51°14.174 2°50.709 -999 346 13.8 103020 36
2011-06-01 08:07:45 51°14.172 2°50.701 -999 347 13.8 103020 36
2011-06-01 08:07:50 51°14.17 2°50.693 -999 347 13.8 103020 36
2011-06-01 08:07:55 51°14.168 2°50.685 -999 347 13.8 103030 36
2011-06-01 08:07:59 51°14.166 2°50.678 -999 348 13.8 103030 36
2011-06-01 08:08:05 51°14.164 2°50.668 -999 347 13.8 103020 36
2011-06-01 08:08:10 51°14.162 2°50.66 -999 349 13.8 103020 36
2011-06-01 08:08:15 51°14.16 2°50.651 -999 348 13.8 103020 35
2011-06-01 08:08:19 51°14.159 2°50.645 -999 350 13.8 103020 35
2011-06-01 08:08:25 51°14.156 2°50.635 -999 349 13.8 103020 36
2011-06-01 08:08:30 51°14.154 2°50.627 -999 349 13.8 103020 36
2011-06-01 08:08:35 51°14.153 2°50.618 -999 348 13.8 103020 36
2011-06-01 08:08:39 51°14.151 2°50.612 -999 349 13.8 103020 36
2011-06-01 08:08:45 51°14.148 2°50.602 -999 349 13.8 103020 36
2011-06-01 08:08:50 51°14.146 2°50.594 -999 349 13.8 103020 36
2011-06-01 08:08:55 51°14.144 2°50.586 -999 350 13.8 103020 36
2011-06-01 08:09:00 51°14.142 2°50.578 -999 351 13.8 103020 36
2011-06-01 08:09:05 51°14.14 2°50.569 -999 352 13.8 103020 36
2011-06-01 08:09:10 51°14.138 2°50.561 -999 351 13.8 103020 36
2011-06-01 08:09:15 51°14.136 2°50.553 -999 351 13.8 103020 36
2011-06-01 08:09:19 51°14.134 2°50.546 -999 352 13.8 103020 36
2011-06-01 08:09:25 51°14.132 2°50.537 -999 351 13.8 103020 36
2011-06-01 08:09:30 51°14.13 2°50.529 -999 351 13.8 103020 36
2011-06-01 08:09:35 51°14.128 2°50.52 -999 352 13.8 103020 36
2011-06-01 08:09:40 51°14.126 2°50.512 -999 353 13.8 103020 36
2011-06-01 08:09:45 51°14.124 2°50.504 -999 352 13.7 103020 36
2011-06-01 08:09:50 51°14.122 2°50.496 -999 353 13.7 103020 36
2011-06-01 08:09:55 51°14.12 2°50.487 -999 350 13.7 103020 36
2011-06-01 08:09:59 51°14.118 2°50.481 -999 352 13.7 103020 36
2011-06-01 08:10:05 51°14.115 2°50.471 -999 353 13.7 103020 36
2011-06-01 08:10:10 51°14.113 2°50.463 -999 350 13.7 103020 36
2011-06-01 08:10:15 51°14.111 2°50.454 -999 350 13.7 103020 36
2011-06-01 08:10:19 51°14.109 2°50.447 -999 352 13.7 103020 36
2011-06-01 08:10:25 51°14.107 2°50.438 -999 352 13.7 103020 36
2011-06-01 08:10:30 51°14.105 2°50.429 -999 350 13.7 103020 36
2011-06-01 08:10:35 51°14.102 2°50.421 -999 351 13.8 103020 36
2011-06-01 08:10:39 51°14.101 2°50.414 -999 352 13.8 103020 36
2011-06-01 08:10:45 51°14.098 2°50.404 -999 351 13.8 103020 36
2011-06-01 08:10:50 51°14.096 2°50.396 -999 351 13.8 103020 36
2011-06-01 08:10:55 51°14.093 2°50.388 -999 351 13.8 103020 35
2011-06-01 08:10:59 51°14.092 2°50.382 -999 352 13.8 103020 35
2011-06-01 08:11:05 51°14.089 2°50.372 -999 351 13.8 103020 36
2011-06-01 08:11:10 51°14.086 2°50.364 -999 351 13.8 103020 36
2011-06-01 08:11:15 51°14.084 2°50.356 -999 351 13.7 103020 35
2011-06-01 08:11:20 51°14.081 2°50.348 -999 351 13.7 103020 35
2011-06-01 08:11:25 51°14.079 2°50.339 -999 351 13.7 103020 35
2011-06-01 08:11:30 51°14.077 2°50.332 -999 351 13.7 103020 35
2011-06-01 08:11:35 51°14.074 2°50.323 -999 350 13.7 103020 35
2011-06-01 08:11:39 51°14.072 2°50.317 -999 349 13.7 103020 35
2011-06-01 08:11:45 51°14.069 2°50.307 -999 350 13.7 103020 36
2011-06-01 08:11:50 51°14.067 2°50.299 -999 350 13.7 103020 36
2011-06-01 08:11:55 51°14.064 2°50.291 -999 351 13.7 103030 36
2011-06-01 08:11:59 51°14.063 2°50.285 -999 352 13.7 103030 36
2011-06-01 08:12:05 51°14.059 2°50.275 -999 352 13.8 103030 36
2011-06-01 08:12:10 51°14.057 2°50.267 -999 349 13.8 103030 36
2011-06-01 08:12:15 51°14.054 2°50.259 -999 349 13.8 103020 36
2011-06-01 08:12:19 51°14.052 2°50.253 -999 351 13.8 103020 36
2011-06-01 08:12:24 51°14.05 2°50.245 -999 349 13.8 103030 36
2011-06-01 08:12:30 51°14.047 2°50.235 -999 351 13.8 103030 36
2011-06-01 08:12:35 51°14.044 2°50.227 -999 352 13.8 103030 36
2011-06-01 08:12:39 51°14.042 2°50.221 -999 351 13.8 103030 36
2011-06-01 08:12:44 51°14.039 2°50.213 -999 351 13.7 103030 36
2011-06-01 08:12:50 51°14.036 2°50.204 -999 352 13.7 103030 36
2011-06-01 08:12:55 51°14.033 2°50.196 -999 352 13.7 103020 36
2011-06-01 08:12:59 51°14.031 2°50.19 -999 353 13.7 103020 36
2011-06-01 08:13:05 51°14.028 2°50.18 -999 350 13.7 103020 35
2011-06-01 08:13:10 51°14.025 2°50.172 -999 352 13.7 103020 35
2011-06-01 08:13:14 51°14.023 2°50.166 -999 352 13.7 103030 35
2011-06-01 08:13:19 51°14.021 2°50.158 -999 353 13.7 103030 35
2011-06-01 08:13:24 51°14.018 2°50.15 -999 353 13.7 103020 35
2011-06-01 08:13:29 51°14.015 2°50.142 -999 350 13.7 103020 35
2011-06-01 08:13:35 51°14.012 2°50.133 -999 351 13.7 103030 34
2011-06-01 08:13:40 51°14.009 2°50.125 -999 350 13.7 103030 34
2011-06-01 08:13:44 51°14.007 2°50.119 -999 350 13.7 103030 36
2011-06-01 08:13:50 51°14.004 2°50.11 -999 350 13.7 103030 36
2011-06-01 08:13:55 51°14.001 2°50.102 -999 351 13.8 103030 36
2011-06-01 08:14:00 51°13.999 2°50.094 -999 348 13.8 103030 36
2011-06-01 08:14:05 51°13.996 2°50.086 -999 349 13.8 103020 36
2011-06-01 08:14:10 51°13.993 2°50.078 -999 347 13.8 103020 36
2011-06-01 08:14:15 51°13.991 2°50.071 -999 348 13.8 103030 36
2011-06-01 08:14:20 51°13.988 2°50.063 -999 348 13.8 103030 36
2011-06-01 08:14:24 51°13.986 2°50.056 -999 348 13.8 103030 36
2011-06-01 08:14:30 51°13.983 2°50.046 -999 350 13.8 103030 36
2011-06-01 08:14:35 51°13.98 2°50.039 -999 347 13.8 103030 36
2011-06-01 08:14:40 51°13.978 2°50.031 -999 349 13.8 103030 36
2011-06-01 08:14:44 51°13.976 2°50.024 -999 348 13.8 103020 36
2011-06-01 08:14:50 51°13.972 2°50.015 -999 351 13.8 103020 36
2011-06-01 08:14:55 51°13.97 2°50.007 -999 348 13.8 103030 36
2011-06-01 08:15:00 51°13.967 2°49.999 -999 349 13.8 103030 36
2011-06-01 08:15:04 51°13.965 2°49.993 -999 349 13.8 103030 36
2011-06-01 08:15:10 51°13.962 2°49.984 -999 351 13.8 103030 36
2011-06-01 08:15:15 51°13.96 2°49.976 -999 356 13.8 103030 36
2011-06-01 08:15:20 51°13.957 2°49.968 -999 353 13.8 103030 36
2011-06-01 08:15:24 51°13.955 2°49.962 -999 353 13.8 103030 37
2011-06-01 08:15:30 51°13.952 2°49.952 -999 353 13.8 103030 37
2011-06-01 08:15:35 51°13.949 2°49.944 -999 354 13.8 103020 36
2011-06-01 08:15:40 51°13.947 2°49.936 -999 352 13.8 103020 36
2011-06-01 08:15:45 51°13.944 2°49.928 -999 350 13.8 103030 36
2011-06-01 08:15:50 51°13.942 2°49.92 -999 350 13.8 103030 36
2011-06-01 08:15:55 51°13.939 2°49.912 -999 349 13.8 103030 36
2011-06-01 08:16:00 51°13.937 2°49.904 -999 347 13.8 103030 36
2011-06-01 08:16:05 51°13.935 2°49.896 -999 351 13.8 103030 36
2011-06-01 08:16:10 51°13.932 2°49.888 -999 350 13.8 103030 36
2011-06-01 08:16:15 51°13.93 2°49.88 -999 350 13.8 103030 35
2011-06-01 08:16:20 51°13.927 2°49.872 -999 352 13.8 103030 35
2011-06-01 08:16:25 51°13.925 2°49.864 -999 350 13.8 103030 37
2011-06-01 08:16:30 51°13.922 2°49.856 -999 349 13.8 103030 37
2011-06-01 08:16:35 51°13.92 2°49.848 -999 347 13.8 103030 37
2011-06-01 08:16:40 51°13.917 2°49.84 -999 347 13.8 103030 37
2011-06-01 08:16:45 51°13.915 2°49.832 -999 346 13.8 103030 37
2011-06-01 08:16:50 51°13.913 2°49.823 -999 349 13.8 103030 37
2011-06-01 08:16:55 51°13.911 2°49.815 -999 350 13.8 103030 37
2011-06-01 08:17:00 51°13.908 2°49.807 -999 348 13.8 103030 37
2011-06-01 08:17:04 51°13.906 2°49.8 -999 350 13.8 103030 37
2011-06-01 08:17:10 51°13.904 2°49.791 -999 351 13.8 103030 37
2011-06-01 08:17:15 51°13.901 2°49.782 -999 352 13.8 103030 37
2011-06-01 08:17:20 51°13.899 2°49.774 -999 350 13.8 103030 37
2011-06-01 08:17:24 51°13.897 2°49.767 -999 350 13.8 103030 37
2011-06-01 08:17:30 51°13.895 2°49.757 -999 351 13.8 103030 37
2011-06-01 08:17:35 51°13.892 2°49.749 -999 351 13.8 103030 37
2011-06-01 08:17:40 51°13.89 2°49.741 -999 347 13.8 103030 37
2011-06-01 08:17:44 51°13.888 2°49.734 -999 348 13.8 103030 37
2011-06-01 08:17:49 51°13.885 2°49.726 -999 346 13.8 103030 37
2011-06-01 08:17:55 51°13.883 2°49.716 -999 346 13.8 103030 37
2011-06-01 08:18:00 51°13.88 2°49.708 -999 345 13.8 103030 37
2011-06-01 08:18:04 51°13.878 2°49.701 -999 346 13.8 103030 37
2011-06-01 08:18:09 51°13.876 2°49.693 -999 350 13.8 103030 37
2011-06-01 08:18:15 51°13.873 2°49.683 -999 351 13.8 103020 37
2011-06-01 08:18:20 51°13.87 2°49.675 -999 352 13.8 103020 37
2011-06-01 08:18:24 51°13.869 2°49.668 -999 352 13.8 103030 37
2011-06-01 08:18:29 51°13.866 2°49.66 -999 351 13.8 103030 37
2011-06-01 08:18:34 51°13.864 2°49.652 -999 351 13.8 103030 37
2011-06-01 08:18:39 51°13.861 2°49.644 -999 344 13.8 103030 37
2011-06-01 08:18:44 51°13.859 2°49.636 -999 345 13.8 103030 37
2011-06-01 08:18:49 51°13.856 2°49.628 -999 346 13.8 103030 37
2011-06-01 08:18:55 51°13.853 2°49.618 -999 347 13.8 103030 35
2011-06-01 08:19:00 51°13.851 2°49.61 -999 344 13.8 103030 35
2011-06-01 08:19:04 51°13.849 2°49.603 -999 345 13.8 103030 37
2011-06-01 08:19:10 51°13.846 2°49.594 -999 346 13.8 103030 37
2011-06-01 08:19:15 51°13.843 2°49.586 -999 345 13.8 103020 37
2011-06-01 08:19:20 51°13.841 2°49.578 -999 347 13.8 103020 37
2011-06-01 08:19:24 51°13.838 2°49.572 -999 347 13.8 103030 37
2011-06-01 08:19:29 51°13.836 2°49.564 -999 347 13.8 103030 37
2011-06-01 08:19:35 51°13.833 2°49.554 -999 349 13.8 103030 37
2011-06-01 08:19:40 51°13.83 2°49.546 -999 347 13.8 103030 37
2011-06-01 08:19:44 51°13.828 2°49.54 -999 349 13.8 103020 37
2011-06-01 08:19:50 51°13.825 2°49.53 -999 351 13.8 103020 37
2011-06-01 08:19:55 51°13.822 2°49.522 -999 350 13.8 103030 37
2011-06-01 08:20:00 51°13.819 2°49.515 -999 351 13.8 103030 37
2011-06-01 08:20:04 51°13.817 2°49.508 -999 351 13.7 103030 37
2011-06-01 08:20:09 51°13.815 2°49.5 -999 351 13.7 103030 37
2011-06-01 08:20:15 51°13.811 2°49.491 -999 352 13.8 103030 37
2011-06-01 08:20:20 51°13.809 2°49.482 -999 352 13.8 103030 37
2011-06-01 08:20:24 51°13.807 2°49.476 -999 353 13.7 103030 37
2011-06-01 08:20:30 51°13.803 2°49.466 -999 353 13.7 103030 37
2011-06-01 08:20:34 51°13.801 2°49.46 -999 354 13.8 103020 36
2011-06-01 08:20:40 51°13.798 2°49.45 -999 352 13.8 103020 36
2011-06-01 08:20:44 51°13.796 2°49.444 -999 352 13.7 103030 36
2011-06-01 08:20:49 51°13.793 2°49.436 -999 352 13.7 103030 36
2011-06-01 08:20:54 51°13.79 2°49.428 -999 351 13.8 103030 37
2011-06-01 08:21:00 51°13.787 2°49.419 -999 351 13.8 103030 37
2011-06-01 08:21:04 51°13.785 2°49.412 -999 352 13.8 103020 37
2011-06-01 08:21:09 51°13.782 2°49.404 -999 352 13.8 103020 37
2011-06-01 08:21:14 51°13.779 2°49.397 -999 353 13.8 103030 37
2011-06-01 08:21:20 51°13.776 2°49.387 -999 348 13.8 103030 37
2011-06-01 08:21:24 51°13.773 2°49.38 -999 347 13.8 103020 37
2011-06-01 08:21:29 51°13.771 2°49.373 -999 348 13.8 103020 37
2011-06-01 08:21:34 51°13.768 2°49.365 -999 349 13.7 103030 35
2011-06-01 08:21:40 51°13.765 2°49.356 -999 350 13.7 103030 35
2011-06-01 08:21:44 51°13.762 2°49.349 -999 351 13.7 103020 37
2011-06-01 08:21:49 51°13.76 2°49.341 -999 354 13.7 103020 37
2011-06-01 08:21:55 51°13.757 2°49.332 -999 353 13.8 103030 37
2011-06-01 08:22:00 51°13.754 2°49.323 -999 351 13.8 103030 37
2011-06-01 08:22:04 51°13.752 2°49.317 -999 350 13.8 103030 37
2011-06-01 08:22:08 51°13.75 2°49.311 -999 346 13.8 103030 37
2011-06-01 08:22:15 51°13.746 2°49.299 -999 348 13.8 103030 37
2011-06-01 08:22:20 51°13.744 2°49.291 -999 346 13.8 103030 37
2011-06-01 08:22:24 51°13.742 2°49.285 -999 344 13.8 103030 37
2011-06-01 08:22:29 51°13.739 2°49.277 -999 344 13.8 103030 37
2011-06-01 08:22:35 51°13.736 2°49.267 -999 347 13.8 103030 38
2011-06-01 08:22:40 51°13.733 2°49.259 -999 345 13.8 103030 38
2011-06-01 08:22:44 51°13.731 2°49.253 -999 344 13.8 103030 37
2011-06-01 08:22:50 51°13.729 2°49.243 -999 346 13.8 103030 37
2011-06-01 08:22:54 51°13.727 2°49.236 -999 347 13.8 103030 37
2011-06-01 08:23:00 51°13.724 2°49.226 -999 345 13.8 103030 37
2011-06-01 08:23:04 51°13.722 2°49.22 -999 345 13.8 103030 37
2011-06-01 08:23:09 51°13.72 2°49.212 -999 346 13.8 103030 37
2011-06-01 08:23:14 51°13.718 2°49.203 -999 345 13.8 103030 37
2011-06-01 08:23:19 51°13.716 2°49.195 -999 345 13.8 103030 37
2011-06-01 08:23:24 51°13.714 2°49.187 -999 342 13.8 103030 37
2011-06-01 08:23:29 51°13.712 2°49.179 -999 342 13.8 103030 37
2011-06-01 08:23:34 51°13.71 2°49.171 -999 343 13.8 103030 37
2011-06-01 08:23:40 51°13.708 2°49.161 -999 342 13.8 103030 37
2011-06-01 08:23:44 51°13.707 2°49.154 -999 341 13.8 103030 37
2011-06-01 08:23:49 51°13.706 2°49.146 -999 342 13.8 103030 37
2011-06-01 08:23:54 51°13.704 2°49.137 -999 343 13.8 103030 37
2011-06-01 08:23:59 51°13.703 2°49.129 -999 341 13.8 103030 37
2011-06-01 08:24:04 51°13.702 2°49.121 -999 342 13.8 103030 37
2011-06-01 08:24:08 51°13.701 2°49.114 -999 341 13.8 103030 37
2011-06-01 08:24:14 51°13.699 2°49.104 -999 340 13.8 103030 35
2011-06-01 08:24:20 51°13.698 2°49.094 -999 340 13.8 103030 35
2011-06-01 08:24:24 51°13.697 2°49.088 -999 340 13.8 103030 37
2011-06-01 08:24:29 51°13.696 2°49.079 -999 340 13.8 103030 37
2011-06-01 08:24:34 51°13.695 2°49.071 -999 341 13.8 103030 37
2011-06-01 08:24:39 51°13.694 2°49.063 -999 341 13.8 103030 37
2011-06-01 08:24:44 51°13.694 2°49.054 -999 342 13.8 103030 37
2011-06-01 08:24:49 51°13.693 2°49.046 -999 339 13.8 103030 37
2011-06-01 08:24:55 51°13.692 2°49.036 -999 337 13.9 103030 37
2011-06-01 08:25:00 51°13.691 2°49.028 -999 341 13.9 103030 37
2011-06-01 08:25:04 51°13.69 2°49.021 -999 339 13.9 103030 37
2011-06-01 08:25:09 51°13.689 2°49.013 -999 339 13.9 103030 37
2011-06-01 08:25:14 51°13.689 2°49.005 -999 341 13.9 103030 37
2011-06-01 08:25:20 51°13.688 2°48.995 -999 341 13.9 103030 37
2011-06-01 08:25:24 51°13.687 2°48.988 -999 341 13.9 103030 37
2011-06-01 08:25:29 51°13.686 2°48.98 -999 340 13.9 103030 37
2011-06-01 08:25:34 51°13.686 2°48.972 -999 340 14 103030 36
2011-06-01 08:25:39 51°13.685 2°48.963 -999 342 14 103030 36
2011-06-01 08:25:45 51°13.684 2°48.953 -999 342 14 103030 36
2011-06-01 08:25:49 51°13.683 2°48.946 -999 341 14 103030 36
2011-06-01 08:25:54 51°13.682 2°48.938 -999 342 14 103030 36
2011-06-01 08:26:00 51°13.681 2°48.928 -999 340 14 103030 36
2011-06-01 08:26:04 51°13.68 2°48.921 -999 342 14 103030 36
2011-06-01 08:26:09 51°13.68 2°48.913 -999 343 14 103030 36
2011-06-01 08:26:14 51°13.679 2°48.905 -999 343 14 103030 36
2011-06-01 08:26:19 51°13.678 2°48.896 -999 343 14 103030 36
2011-06-01 08:26:25 51°13.677 2°48.886 -999 343 14 103030 36
2011-06-01 08:26:29 51°13.676 2°48.88 -999 341 14 103030 36
2011-06-01 08:26:35 51°13.675 2°48.87 -999 340 14 103030 36
2011-06-01 08:26:39 51°13.674 2°48.863 -999 341 14 103030 36
2011-06-01 08:26:44 51°13.673 2°48.855 -999 342 14 103030 36
2011-06-01 08:26:49 51°13.672 2°48.846 -999 340 14 103030 36
2011-06-01 08:26:54 51°13.671 2°48.838 -999 339 14 103030 35
2011-06-01 08:27:00 51°13.67 2°48.828 -999 339 14 103030 35
2011-06-01 08:27:04 51°13.669 2°48.821 -999 338 14 103030 36
2011-06-01 08:27:10 51°13.668 2°48.811 -999 338 14 103030 36
2011-06-01 08:27:14 51°13.667 2°48.804 -999 339 14 103030 37
2011-06-01 08:27:19 51°13.667 2°48.796 -999 338 14 103030 37
2011-06-01 08:27:25 51°13.665 2°48.786 -999 339 14 103030 37
2011-06-01 08:27:29 51°13.665 2°48.779 -999 340 14 103030 37
2011-06-01 08:27:34 51°13.664 2°48.771 -999 341 14 103030 37
2011-06-01 08:27:39 51°13.663 2°48.762 -999 339 14 103030 37
2011-06-01 08:27:44 51°13.662 2°48.754 -999 340 14 103030 37
2011-06-01 08:27:49 51°13.661 2°48.746 -999 341 14 103030 37
2011-06-01 08:27:54 51°13.66 2°48.737 -999 343 14.1 103030 37
2011-06-01 08:28:00 51°13.659 2°48.727 -999 343 14.1 103030 37
2011-06-01 08:28:04 51°13.658 2°48.72 -999 343 14.1 103030 36
2011-06-01 08:28:08 51°13.658 2°48.714 -999 341 14.1 103030 36
2011-06-01 08:28:14 51°13.656 2°48.704 -999 342 14.1 103030 36
2011-06-01 08:28:20 51°13.655 2°48.693 -999 343 14.1 103030 36
2011-06-01 08:28:24 51°13.654 2°48.687 -999 341 14.1 103030 36
2011-06-01 08:28:30 51°13.653 2°48.677 -999 344 14.1 103030 36
2011-06-01 08:28:34 51°13.652 2°48.67 -999 342 14.1 103030 37
2011-06-01 08:28:41 51°13.651 2°48.658 -999 338 14.1 103030 37
2011-06-01 08:28:44 51°13.65 2°48.653 -999 338 14.1 103030 37
2011-06-01 08:28:48 51°13.649 2°48.646 -999 337 14.1 103030 37
2011-06-01 08:28:54 51°13.648 2°48.636 -999 338 14.1 103030 37
2011-06-01 08:28:59 51°13.647 2°48.627 -999 338 14.1 103030 37
2011-06-01 08:29:05 51°13.646 2°48.617 -999 341 14.2 103030 37
2011-06-01 08:29:10 51°13.644 2°48.609 -999 342 14.2 103030 37
2011-06-01 08:29:15 51°13.643 2°48.6 -999 340 14.2 103030 37
2011-06-01 08:29:20 51°13.642 2°48.592 -999 342 14.2 103030 37
2011-06-01 08:29:25 51°13.641 2°48.584 -999 341 14.2 103030 37
2011-06-01 08:29:29 51°13.64 2°48.577 -999 340 14.2 103030 37
2011-06-01 08:29:35 51°13.638 2°48.567 -999 342 14.2 103030 35
2011-06-01 08:29:40 51°13.636 2°48.559 -999 343 14.2 103030 35
2011-06-01 08:29:45 51°13.635 2°48.55 -999 346 14.2 103030 37
2011-06-01 08:29:50 51°13.633 2°48.542 -999 344 14.2 103030 37
2011-06-01 08:29:55 51°13.631 2°48.533 -999 347 14.2 103030 37
2011-06-01 08:30:00 51°13.629 2°48.525 -999 345 14.2 103030 37
2011-06-01 08:30:05 51°13.627 2°48.517 -999 344 14.2 103030 37
2011-06-01 08:30:10 51°13.625 2°48.508 -999 342 14.2 103030 37
2011-06-01 08:30:15 51°13.623 2°48.5 -999 341 14.2 103030 37
2011-06-01 08:30:20 51°13.621 2°48.492 -999 347 14.2 103030 37
2011-06-01 08:30:25 51°13.619 2°48.484 -999 344 14.2 103030 37
2011-06-01 08:30:30 51°13.617 2°48.475 -999 344 14.2 103030 37
2011-06-01 08:30:35 51°13.615 2°48.467 -999 344 14.2 103030 37
2011-06-01 08:30:40 51°13.613 2°48.459 -999 343 14.2 103030 37
2011-06-01 08:30:45 51°13.61 2°48.451 -999 345 14.2 103030 37
2011-06-01 08:30:50 51°13.608 2°48.442 -999 347 14.2 103030 37
2011-06-01 08:30:55 51°13.606 2°48.434 -999 344 14.2 103030 37
2011-06-01 08:31:00 51°13.603 2°48.426 -999 344 14.2 103030 37
2011-06-01 08:31:05 51°13.601 2°48.417 -999 343 14.1 103030 37
2011-06-01 08:31:09 51°13.599 2°48.411 -999 346 14.1 103030 37
2011-06-01 08:31:15 51°13.596 2°48.401 -999 345 14.1 103030 37
2011-06-01 08:31:20 51°13.594 2°48.393 -999 344 14.1 103030 37
2011-06-01 08:31:25 51°13.592 2°48.384 -999 344 14.1 103030 37
2011-06-01 08:31:29 51°13.59 2°48.378 -999 344 14.1 103030 37
2011-06-01 08:31:35 51°13.587 2°48.368 -999 344 14.1 103030 37
2011-06-01 08:31:40 51°13.585 2°48.36 -999 345 14.1 103030 37
2011-06-01 08:31:45 51°13.583 2°48.351 -999 347 14.1 103030 37
2011-06-01 08:31:49 51°13.581 2°48.345 -999 346 14.1 103030 37
2011-06-01 08:31:54 51°13.579 2°48.337 -999 346 14.1 103030 37
2011-06-01 08:32:00 51°13.576 2°48.327 -999 347 14.1 103030 37
2011-06-01 08:32:05 51°13.574 2°48.318 -999 345 14.1 103030 36
2011-06-01 08:32:09 51°13.572 2°48.312 -999 346 14.1 103030 36
2011-06-01 08:32:15 51°13.57 2°48.302 -999 345 14 103030 35
2011-06-01 08:32:20 51°13.568 2°48.293 -999 345 14 103030 35
2011-06-01 08:32:25 51°13.566 2°48.285 -999 344 14 103030 36
2011-06-01 08:32:29 51°13.564 2°48.278 -999 346 14 103030 36
2011-06-01 08:32:35 51°13.563 2°48.268 -999 345 14 103030 36
2011-06-01 08:32:40 51°13.561 2°48.259 -999 344 14 103030 36
2011-06-01 08:32:45 51°13.56 2°48.251 -999 346 13.9 103030 36
2011-06-01 08:32:49 51°13.559 2°48.244 -999 344 13.9 103030 36
2011-06-01 08:32:55 51°13.557 2°48.235 -999 346 14 103030 36
2011-06-01 08:33:00 51°13.557 2°48.226 -999 342 14 103030 36
2011-06-01 08:33:05 51°13.556 2°48.218 -999 343 13.9 103030 36
2011-06-01 08:33:10 51°13.555 2°48.209 -999 343 13.9 103030 36
2011-06-01 08:33:15 51°13.554 2°48.201 -999 341 14 103030 37
2011-06-01 08:33:20 51°13.554 2°48.193 -999 341 14 103030 37
2011-06-01 08:33:25 51°13.554 2°48.185 -999 341 14 103030 37
2011-06-01 08:33:29 51°13.553 2°48.178 -999 339 14 103030 37
2011-06-01 08:33:35 51°13.553 2°48.168 -999 339 14 103030 37
2011-06-01 08:33:40 51°13.552 2°48.16 -999 338 14 103030 37
2011-06-01 08:33:45 51°13.552 2°48.152 -999 337 14 103030 37
2011-06-01 08:33:49 51°13.552 2°48.145 -999 337 14 103030 37
2011-06-01 08:33:55 51°13.551 2°48.135 -999 334 14 103030 37
2011-06-01 08:34:00 51°13.551 2°48.127 -999 336 14 103030 37
2011-06-01 08:34:05 51°13.551 2°48.119 -999 336 14.1 103030 37
2011-06-01 08:34:09 51°13.551 2°48.113 -999 339 14.1 103030 37
2011-06-01 08:34:14 51°13.55 2°48.105 -999 337 14.1 103030 37
2011-06-01 08:34:20 51°13.55 2°48.095 -999 335 14.1 103030 37
2011-06-01 08:34:25 51°13.55 2°48.087 -999 334 14.1 103030 37
2011-06-01 08:34:29 51°13.55 2°48.08 -999 335 14.1 103030 37
2011-06-01 08:34:34 51°13.55 2°48.072 -999 332 14.1 103030 37
2011-06-01 08:34:39 51°13.55 2°48.064 -999 337 14.1 103030 37
2011-06-01 08:34:45 51°13.55 2°48.054 -999 336 14.1 103030 37
2011-06-01 08:34:49 51°13.549 2°48.048 -999 336 14.1 103030 37
2011-06-01 08:34:54 51°13.549 2°48.04 -999 335 14.1 103030 35
2011-06-01 08:35:00 51°13.55 2°48.03 -999 335 14.1 103030 35
2011-06-01 08:35:05 51°13.55 2°48.022 -999 333 14.1 103040 37
2011-06-01 08:35:09 51°13.55 2°48.015 -999 333 14.1 103040 37
2011-06-01 08:35:14 51°13.55 2°48.007 -999 333 14.1 103030 37
2011-06-01 08:35:20 51°13.55 2°47.998 -999 333 14.1 103030 37
2011-06-01 08:35:25 51°13.551 2°47.99 -999 331 14.1 103030 37
2011-06-01 08:35:29 51°13.551 2°47.983 -999 332 14.1 103030 37
2011-06-01 08:35:34 51°13.552 2°47.975 -999 331 14.1 103030 37
2011-06-01 08:35:40 51°13.553 2°47.966 -999 330 14.1 103030 37
2011-06-01 08:35:45 51°13.554 2°47.958 -999 329 14.1 103030 37
2011-06-01 08:35:49 51°13.554 2°47.952 -999 328 14.1 103030 37
2011-06-01 08:35:55 51°13.555 2°47.942 -999 329 14.1 103030 37
2011-06-01 08:36:00 51°13.556 2°47.934 -999 328 14.1 103030 37
2011-06-01 08:36:05 51°13.557 2°47.926 -999 328 14.1 103030 37
2011-06-01 08:36:09 51°13.558 2°47.92 -999 328 14.1 103030 37
2011-06-01 08:36:14 51°13.559 2°47.913 -999 328 14.1 103030 37
2011-06-01 08:36:20 51°13.56 2°47.904 -999 330 14.1 103030 37
2011-06-01 08:36:25 51°13.561 2°47.897 -999 327 14.1 103030 37
2011-06-01 08:36:29 51°13.562 2°47.892 -999 330 14.1 103030 37
2011-06-01 08:36:34 51°13.563 2°47.885 -999 328 14.1 103030 37
2011-06-01 08:36:40 51°13.564 2°47.877 -999 330 14.1 103030 37
2011-06-01 08:36:45 51°13.565 2°47.871 -999 329 14.1 103030 37
2011-06-01 08:36:49 51°13.566 2°47.867 -999 330 14.1 103030 37
2011-06-01 08:36:54 51°13.566 2°47.861 -999 329 14.1 103040 37
2011-06-01 08:36:59 51°13.567 2°47.855 -999 328 14.1 103040 37
2011-06-01 08:37:05 51°13.568 2°47.849 -999 328 14.1 103040 37
2011-06-01 08:37:09 51°13.569 2°47.844 -999 331 14.1 103040 37
2011-06-01 08:37:14 51°13.57 2°47.839 -999 329 14.1 103030 37
2011-06-01 08:37:20 51°13.57 2°47.833 -999 328 14.1 103030 37
2011-06-01 08:37:25 51°13.571 2°47.828 -999 328 14.1 103030 37
2011-06-01 08:37:29 51°13.572 2°47.823 -999 327 14.1 103030 37
2011-06-01 08:37:34 51°13.572 2°47.819 -999 324 14.1 103030 35
2011-06-01 08:37:40 51°13.573 2°47.813 -999 325 14.1 103030 35
2011-06-01 08:37:45 51°13.574 2°47.809 -999 325 14.1 103030 37
2011-06-01 08:37:49 51°13.574 2°47.805 -999 326 14.1 103030 37
2011-06-01 08:37:55 51°13.574 2°47.8 -999 327 14.1 103030 37
2011-06-01 08:38:00 51°13.575 2°47.796 -999 325 14.1 103030 37
2011-06-01 08:38:05 51°13.575 2°47.792 -999 325 14.1 103030 37
2011-06-01 08:38:09 51°13.576 2°47.788 -999 326 14.1 103030 37
2011-06-01 08:38:15 51°13.576 2°47.783 -999 326 14.2 103030 37
2011-06-01 08:38:20 51°13.577 2°47.78 -999 325 14.2 103030 37
2011-06-01 08:38:25 51°13.577 2°47.776 -999 324 14.2 103030 37
2011-06-01 08:38:29 51°13.577 2°47.773 -999 324 14.2 103030 37
2011-06-01 08:38:34 51°13.578 2°47.769 -999 324 14.2 103030 37
2011-06-01 08:38:40 51°13.579 2°47.763 -999 324 14.2 103030 37
2011-06-01 08:38:45 51°13.58 2°47.759 -999 324 14.2 103030 37
2011-06-01 08:38:49 51°13.581 2°47.755 -999 323 14.2 103030 37
2011-06-01 08:38:54 51°13.583 2°47.748 -999 323 14.2 103030 37
2011-06-01 08:39:00 51°13.586 2°47.74 -999 324 14.2 103030 37
2011-06-01 08:39:05 51°13.589 2°47.733 -999 325 14.2 103030 37
2011-06-01 08:39:09 51°13.591 2°47.727 -999 322 14.2 103030 37
2011-06-01 08:39:14 51°13.595 2°47.719 -999 322 14.2 103030 36
2011-06-01 08:39:19 51°13.598 2°47.711 -999 321 14.2 103030 36
2011-06-01 08:39:25 51°13.603 2°47.701 -999 323 14.2 103030 36
2011-06-01 08:39:29 51°13.607 2°47.695 -999 320 14.2 103030 36
2011-06-01 08:39:34 51°13.611 2°47.687 -999 319 14.2 103030 37
2011-06-01 08:39:39 51°13.616 2°47.68 -999 322 14.2 103030 37
2011-06-01 08:39:45 51°13.623 2°47.671 -999 317 14.2 103030 37
2011-06-01 08:39:50 51°13.628 2°47.665 -999 316 14.2 103030 37
2011-06-01 08:39:54 51°13.633 2°47.659 -999 316 14.2 103030 37
2011-06-01 08:40:00 51°13.64 2°47.652 -999 317 14.2 103030 37
2011-06-01 08:40:05 51°13.646 2°47.646 -999 316 14.2 103030 37
2011-06-01 08:40:10 51°13.653 2°47.641 -999 36 14.2 103030 37
2011-06-01 08:40:14 51°13.658 2°47.636 -999 24 14.3 103030 36
2011-06-01 08:40:20 51°13.665 2°47.63 -999 36 14.3 103030 36
2011-06-01 08:40:25 51°13.672 2°47.624 -999 24 14.3 103030 37
2011-06-01 08:40:29 51°13.677 2°47.62 -999 316 14.3 103030 37
2011-06-01 08:40:34 51°13.684 2°47.615 -999 315 14.3 103030 37
2011-06-01 08:40:40 51°13.692 2°47.609 -999 316 14.3 103030 37
2011-06-01 08:40:45 51°13.698 2°47.603 -999 317 14.3 103030 37
2011-06-01 08:40:49 51°13.704 2°47.599 -999 316 14.3 103030 37
2011-06-01 08:40:53 51°13.709 2°47.595 -999 317 14.3 103020 37
2011-06-01 08:41:00 51°13.719 2°47.588 -999 36 14.3 103020 37
2011-06-01 08:41:05 51°13.725 2°47.584 -999 24 14.3 103030 37
2011-06-01 08:41:09 51°13.731 2°47.58 -999 36 14.3 103030 37
2011-06-01 08:41:14 51°13.738 2°47.575 -999 24 14.3 103030 37
2011-06-01 08:41:19 51°13.745 2°47.571 -999 36 14.3 103030 37
2011-06-01 08:41:25 51°13.753 2°47.565 -999 24 14.3 103030 37
2011-06-01 08:41:29 51°13.758 2°47.56 -999 315 14.3 103030 37
2011-06-01 08:41:34 51°13.765 2°47.555 -999 316 14.2 103020 37
2011-06-01 08:41:40 51°13.773 2°47.547 -999 317 14.2 103020 37
2011-06-01 08:41:45 51°13.779 2°47.541 -999 24 14.2 103030 37
2011-06-01 08:41:49 51°13.783 2°47.536 -999 317 14.2 103030 37
2011-06-01 08:41:54 51°13.789 2°47.53 -999 316 14.2 103030 37
2011-06-01 08:41:59 51°13.794 2°47.524 -999 317 14.2 103030 37
2011-06-01 08:42:05 51°13.8 2°47.517 -999 24 14.2 103030 37
2011-06-01 08:42:09 51°13.804 2°47.513 -999 36 14.2 103030 37
2011-06-01 08:42:14 51°13.809 2°47.507 -999 24 14.3 103020 37
2011-06-01 08:42:19 51°13.814 2°47.502 -999 36 14.3 103020 37
2011-06-01 08:42:25 51°13.82 2°47.495 -999 24 14.3 103030 37
2011-06-01 08:42:29 51°13.824 2°47.491 -999 36 14.3 103030 37
2011-06-01 08:42:34 51°13.828 2°47.486 -999 24 14.3 103030 37
2011-06-01 08:42:40 51°13.834 2°47.48 -999 36 14.3 103030 37
2011-06-01 08:42:45 51°13.838 2°47.475 -999 24 14.3 103030 37
2011-06-01 08:42:49 51°13.842 2°47.471 -999 36 14.3 103030 37
2011-06-01 08:42:54 51°13.846 2°47.466 -999 24 14.3 103030 36
2011-06-01 08:43:00 51°13.852 2°47.461 -999 36 14.3 103030 36
2011-06-01 08:43:05 51°13.856 2°47.457 -999 24 14.3 103030 37
2011-06-01 08:43:09 51°13.86 2°47.454 -999 36 14.3 103030 37
2011-06-01 08:43:14 51°13.864 2°47.451 -999 24 14.3 103020 37
2011-06-01 08:43:20 51°13.869 2°47.447 -999 36 14.3 103020 37
2011-06-01 08:43:25 51°13.874 2°47.445 -999 24 14.3 103030 37
2011-06-01 08:43:29 51°13.878 2°47.443 -999 36 14.3 103030 37
2011-06-01 08:43:34 51°13.883 2°47.442 -999 24 14.3 103030 37
2011-06-01 08:43:39 51°13.887 2°47.442 -999 236 14.3 103030 37
2011-06-01 08:43:44 51°13.892 2°47.441 -999 24 14.3 103020 37
2011-06-01 08:43:50 51°13.899 2°47.442 -999 240 14.3 103020 37
2011-06-01 08:43:55 51°13.903 2°47.443 -999 24 14.3 103030 37
2011-06-01 08:44:00 51°13.908 2°47.445 -999 243 14.3 103030 37
2011-06-01 08:44:05 51°13.912 2°47.447 -999 24 14.3 103030 37
2011-06-01 08:44:10 51°13.917 2°47.45 -999 246 14.3 103030 37
2011-06-01 08:44:15 51°13.921 2°47.454 -999 246 14.3 103030 37
2011-06-01 08:44:20 51°13.925 2°47.458 -999 253 14.3 103030 37
2011-06-01 08:44:25 51°13.929 2°47.462 -999 252 14.3 103030 37
2011-06-01 08:44:30 51°13.932 2°47.467 -999 254 14.3 103030 37
2011-06-01 08:44:35 51°13.936 2°47.473 -999 255 14.3 103030 37
2011-06-01 08:44:40 51°13.939 2°47.478 -999 255 14.3 103030 37
2011-06-01 08:44:45 51°13.942 2°47.484 -999 256 14.3 103030 37
2011-06-01 08:44:50 51°13.946 2°47.491 -999 259 14.3 103030 37
2011-06-01 08:44:55 51°13.949 2°47.497 -999 260 14.3 103030 37
2011-06-01 08:45:00 51°13.952 2°47.503 -999 260 14.3 103030 37
2011-06-01 08:45:05 51°13.955 2°47.51 -999 260 14.3 103040 37
2011-06-01 08:45:10 51°13.958 2°47.517 -999 257 14.3 103040 37
2011-06-01 08:45:14 51°13.961 2°47.522 -999 255 14.3 103040 37
2011-06-01 08:45:20 51°13.964 2°47.531 -999 262 14.3 103040 37
2011-06-01 08:45:25 51°13.967 2°47.538 -999 262 14.3 103030 37
2011-06-01 08:45:30 51°13.97 2°47.546 -999 254 14.3 103030 37
2011-06-01 08:45:34 51°13.972 2°47.552 -999 256 14.3 103030 36
2011-06-01 08:45:40 51°13.975 2°47.561 -999 258 14.3 103030 36
2011-06-01 08:45:45 51°13.978 2°47.568 -999 258 14.3 103030 37
2011-06-01 08:45:50 51°13.98 2°47.576 -999 260 14.3 103030 37
2011-06-01 08:45:55 51°13.983 2°47.583 -999 258 14.3 103040 37
2011-06-01 08:46:00 51°13.985 2°47.591 -999 253 14.3 103040 37
2011-06-01 08:46:05 51°13.987 2°47.6 -999 252 14.3 103030 37
2011-06-01 08:46:10 51°13.989 2°47.608 -999 254 14.3 103030 37
2011-06-01 08:46:15 51°13.991 2°47.616 -999 253 14.4 103030 37
2011-06-01 08:46:20 51°13.993 2°47.624 -999 257 14.4 103030 37
2011-06-01 08:46:25 51°13.995 2°47.632 -999 257 14.4 103040 37
2011-06-01 08:46:30 51°13.998 2°47.64 -999 255 14.4 103040 37
2011-06-01 08:46:35 51°13.999 2°47.649 -999 255 14.4 103040 37
2011-06-01 08:46:40 51°14.001 2°47.658 -999 256 14.4 103040 37
2011-06-01 08:46:45 51°14.002 2°47.667 -999 257 14.4 103030 37
2011-06-01 08:46:50 51°14.004 2°47.675 -999 259 14.4 103030 37
2011-06-01 08:46:54 51°14.005 2°47.682 -999 262 14.4 103040 37
2011-06-01 08:47:00 51°14.007 2°47.693 -999 259 14.4 103040 37
2011-06-01 08:47:05 51°14.008 2°47.701 -999 260 14.4 103040 37
2011-06-01 08:47:10 51°14.01 2°47.71 -999 253 14.4 103040 37
2011-06-01 08:47:15 51°14.011 2°47.719 -999 253 14.4 103040 37
2011-06-01 08:47:20 51°14.012 2°47.728 -999 256 14.4 103040 37
2011-06-01 08:47:25 51°14.013 2°47.736 -999 262 14.5 103040 37
2011-06-01 08:47:30 51°14.014 2°47.745 -999 258 14.5 103040 37
2011-06-01 08:47:35 51°14.015 2°47.754 -999 260 14.5 103030 37
2011-06-01 08:47:40 51°14.015 2°47.764 -999 261 14.5 103030 37
2011-06-01 08:47:45 51°14.015 2°47.773 -999 263 14.5 103040 37
2011-06-01 08:47:50 51°14.015 2°47.783 -999 263 14.5 103040 37
2011-06-01 08:47:55 51°14.015 2°47.792 -999 263 14.5 103030 37
2011-06-01 08:48:00 51°14.015 2°47.801 -999 305 14.5 103030 37
2011-06-01 08:48:05 51°14.015 2°47.81 -999 260 14.5 103040 37
2011-06-01 08:48:10 51°14.015 2°47.819 -999 260 14.5 103040 37
2011-06-01 08:48:14 51°14.014 2°47.827 -999 259 14.6 103040 36
2011-06-01 08:48:20 51°14.013 2°47.839 -999 265 14.6 103040 36
2011-06-01 08:48:25 51°14.012 2°47.848 -999 265 14.6 103040 37
2011-06-01 08:48:30 51°14.011 2°47.858 -999 267 14.6 103040 37
2011-06-01 08:48:35 51°14.01 2°47.867 -999 267 14.6 103040 37
2011-06-01 08:48:40 51°14.008 2°47.876 -999 268 14.6 103040 37
2011-06-01 08:48:45 51°14.007 2°47.886 -999 268 14.6 103040 37
2011-06-01 08:48:50 51°14.005 2°47.895 -999 270 14.6 103040 37
2011-06-01 08:48:55 51°14.004 2°47.905 -999 270 14.7 103030 37
2011-06-01 08:49:00 51°14.002 2°47.914 -999 270 14.7 103030 37
2011-06-01 08:49:05 51°14 2°47.924 -999 30 14.7 103030 37
2011-06-01 08:49:10 51°13.998 2°47.933 -999 36 14.7 103030 37
2011-06-01 08:49:14 51°13.996 2°47.94 -999 25 14.6 103040 37
2011-06-01 08:49:20 51°13.993 2°47.951 -999 36 14.6 103040 37
2011-06-01 08:49:25 51°13.991 2°47.961 -999 25 14.7 103040 37
2011-06-01 08:49:30 51°13.989 2°47.97 -999 36 14.7 103040 37
2011-06-01 08:49:34 51°13.987 2°47.977 -999 25 14.7 103030 37
2011-06-01 08:49:40 51°13.984 2°47.988 -999 36 14.7 103030 37
2011-06-01 08:49:45 51°13.981 2°47.997 -999 25 14.7 103030 37
2011-06-01 08:49:50 51°13.979 2°48.006 -999 36 14.7 103030 37
2011-06-01 08:49:54 51°13.977 2°48.014 -999 24 14.7 103030 37
2011-06-01 08:50:00 51°13.973 2°48.025 -999 36 14.7 103030 37
2011-06-01 08:50:05 51°13.971 2°48.034 -999 24 14.7 103030 37
2011-06-01 08:50:10 51°13.968 2°48.043 -999 36 14.7 103030 37
2011-06-01 08:50:14 51°13.966 2°48.05 -999 25 14.7 103030 37
2011-06-01 08:50:19 51°13.964 2°48.059 -999 36 14.7 103030 37
2011-06-01 08:50:25 51°13.961 2°48.07 -999 25 14.8 103030 37
2011-06-01 08:50:30 51°13.959 2°48.079 -999 36 14.8 103030 37
2011-06-01 08:50:34 51°13.957 2°48.086 -999 24 14.8 103030 37
2011-06-01 08:50:39 51°13.955 2°48.095 -999 55 14.8 103030 37
2011-06-01 08:50:44 51°13.952 2°48.105 -999 25 14.8 103040 37
2011-06-01 08:50:50 51°13.949 2°48.116 -999 36 14.8 103040 37
2011-06-01 08:50:54 51°13.947 2°48.123 -999 25 14.8 103030 35
2011-06-01 08:50:59 51°13.944 2°48.132 -999 78 14.8 103030 35
2011-06-01 08:51:04 51°13.942 2°48.141 -999 25 14.8 103030 37
2011-06-01 08:51:10 51°13.94 2°48.153 -999 36 14.8 103030 37
2011-06-01 08:51:14 51°13.938 2°48.16 -999 25 14.8 103040 37
2011-06-01 08:51:20 51°13.935 2°48.171 -999 55 14.8 103040 37
2011-06-01 08:51:25 51°13.933 2°48.18 -999 249 14.9 103030 37
2011-06-01 08:51:30 51°13.931 2°48.189 -999 306 14.9 103030 37
2011-06-01 08:51:34 51°13.929 2°48.196 -999 266 14.9 103030 37
2011-06-01 08:51:40 51°13.926 2°48.207 -999 41 14.9 103030 37
2011-06-01 08:51:45 51°13.924 2°48.215 -999 28 14.9 103030 37
2011-06-01 08:51:50 51°13.922 2°48.224 -999 55 14.9 103030 37
2011-06-01 08:51:54 51°13.92 2°48.23 -999 25 15 103030 37
2011-06-01 08:51:59 51°13.918 2°48.239 -999 36 15 103030 37
2011-06-01 08:52:05 51°13.916 2°48.248 -999 25 15 103040 37
2011-06-01 08:52:10 51°13.914 2°48.256 -999 36 15 103040 37
2011-06-01 08:52:14 51°13.912 2°48.263 -999 24 15 103030 37
2011-06-01 08:52:20 51°13.91 2°48.272 -999 36 15 103030 37
2011-06-01 08:52:25 51°13.908 2°48.281 -999 24 15 103040 37
2011-06-01 08:52:30 51°13.906 2°48.288 -999 36 15 103040 37
2011-06-01 08:52:34 51°13.904 2°48.295 -999 24 15 103040 37
2011-06-01 08:52:39 51°13.902 2°48.303 -999 55 15 103040 37
2011-06-01 08:52:45 51°13.9 2°48.312 -999 25 15.1 103030 37
2011-06-01 08:52:50 51°13.899 2°48.32 -999 37 15.1 103030 37
2011-06-01 08:52:54 51°13.897 2°48.326 -999 25 15 103030 37
2011-06-01 08:52:59 51°13.895 2°48.334 -999 36 15 103030 37
2011-06-01 08:53:04 51°13.893 2°48.342 -999 25 15 103030 37
2011-06-01 08:53:10 51°13.891 2°48.351 -999 36 15 103030 37
2011-06-01 08:53:14 51°13.89 2°48.357 -999 24 15 103030 37
2011-06-01 08:53:19 51°13.888 2°48.365 -999 36 15 103030 37
2011-06-01 08:53:24 51°13.886 2°48.372 -999 24 15 103030 36
2011-06-01 08:53:29 51°13.885 2°48.38 -999 36 15 103030 36